This is the latest recevied weather packets stored in our database for station/object KC3ELT-10. If no packets are shown the sender has not sent any weather packets the latest 1 day(s).
| Time | Temp. | Humidity | Pressure | Rain* | Wind** | Luminosity | Snow |
|---|---|---|---|---|---|---|---|
| 1777977179 | 11.11° C | 83% | 1004.3 hPa | 0 mm | 0.89 m/s, 146° | - | - |
| 1777976879 | 11.11° C | 83% | 1004.4 hPa | 0 mm | 0.89 m/s, 136° | - | - |
| 1777976579 | 11.11° C | 83% | 1004.4 hPa | 0 mm | 0.89 m/s, 164° | - | - |
| 1777976279 | 11.11° C | 83% | 1004.4 hPa | 0 mm | 0.45 m/s, 165° | - | - |
| 1777975979 | 11.11° C | 83% | 1004.3 hPa | 0 mm | 0.89 m/s, 160° | - | - |
| 1777975679 | 11.67° C | 82% | 1004.3 hPa | 0 mm | 0 m/s | - | - |
| 1777975378 | 11.67° C | 82% | 1004.3 hPa | 0 mm | 0.45 m/s, 128° | - | - |
| 1777975079 | 11.67° C | 82% | 1004.3 hPa | 0 mm | 0.45 m/s, 139° | - | - |
| 1777974779 | 11.67° C | 82% | 1004.3 hPa | 0 mm | 1.79 m/s, 129° | - | - |
| 1777974479 | 11.67° C | 82% | 1004.3 hPa | 0 mm | 0 m/s | - | - |
| 1777974179 | 11.67° C | 81% | 1004.5 hPa | 0 mm | 0.45 m/s, 153° | - | - |
| 1777973879 | 12.22° C | 81% | 1004.5 hPa | 0 mm | 0 m/s | - | - |
| 1777973579 | 12.22° C | 80% | 1004.5 hPa | 0 mm | 0 m/s | - | - |
| 1777973279 | 12.78° C | 78% | 1004.7 hPa | 0 mm | 0 m/s | - | - |
| 1777972979 | 12.78° C | 77% | 1004.7 hPa | 0 mm | 2.68 m/s, 145° | - | - |
| 1777972679 | 13.33° C | 75% | 1004.7 hPa | 0 mm | 0.45 m/s, 257° | - | - |
| 1777972379 | 13.33° C | 75% | 1004.1 hPa | 0 mm | 0.89 m/s, 259° | - | - |
| 1777972079 | 13.89° C | 75% | 1004.1 hPa | 0 mm | 0 m/s | - | - |
| 1777971779 | 13.89° C | 73% | 1004.1 hPa | 0 mm | 0.89 m/s, 252° | - | - |
| 1777971479 | 14.44° C | 71% | 1004.1 hPa | 0 mm | 0.45 m/s, 298° | - | - |
| 1777971179 | 14.44° C | 68% | 1004.1 hPa | 0 mm | 1.34 m/s, 268° | - | - |
| 1777970879 | 14.44° C | 69% | 1004.1 hPa | 0 mm | 2.24 m/s, 266° | - | - |
| 1777970579 | 14.44° C | 69% | 1003.9 hPa | 0 mm | 1.34 m/s, 246° | - | - |
| 1777970279 | 14.44° C | 69% | 1003.9 hPa | 0 mm | 1.79 m/s, 259° | - | - |
| 1777969979 | 14.44° C | 69% | 1003.9 hPa | 0 mm | 0.45 m/s, 224° | - | - |
* Rain latest hour (hover to see other rain measurements)
** Current wind speed in m/s (hover to see current wind gust speed)